Location: Goettingen
(51.5300°N, 9.9433°E)
Time: 19:30:34
(UTC+02:00)

ISS - Pass Details

Date: 20 September 2021
Orbit: 419 x 423 km, 51.6° (Epoch: 20 September)

Event Time Altitude Azimuth Distance (km) Brightness Sun altitude
Rises 20:53:25 0° 242° (WSW) 2,360 0.7 -14.6°
Reaches altitude 10° 20:55:32 10° 238° (WSW) 1,499 -0.5 -14.9°
Maximum altitude 20:58:50 55° 159° (SSE) 510 -3.6 -15.4°
Enters shadow 20:59:51 37° 102° (ESE) 673 -3.3 -15.5°
